{"data":{"norad_id":53253,"epoch":"2026-05-24T20:59:31.218432Z","epoch_age_seconds":96028,"freshness":"FRESH","line1":"1 53253U 22086M   26144.87466688 -.00000206  00000+0  51388-5 0  9994","line2":"2 53253  53.2150 212.1132 0001013  81.3215 278.7892 15.08838216212564","mean_motion":15.08838216,"eccentricity":0.0001013,"inclination_deg":53.215,"raan_deg":212.1132,"arg_perigee_deg":81.3215,"mean_anomaly_deg":278.7892,"bstar":5.1388e-6,"rev_number":21256,"period_min":95.437667519948,"perigee_km":539.04806010799,"apogee_km":540.44962377957,"semimajor_km":6917.8858419438,"source":"CELESTRAK","updated_at":"2026-05-25T13:38:17.362178Z"}}